Regional Weather Roundup
Issued by NWS

Home | Current Version | Previous Version | Graphics & Text | Print | Product List | Glossary On
Versions: 1 2 3 4 5 6 7 8 9 10 11 12 13 14 15 16 17 18 19 20 21 22 23 24 25 26 27
000
ASUS45 KPSR 251210
RWRAZ

ARIZONA HOURLY REGIONAL WEATHER ROUNDUP
NATIONAL WEATHER SERVICE PHOENIX AZ
500 AM MST SAT MAR 25 2017

NOTE: FAIR INDICATES FEW OR NO CLOUDS BELOW 12,000 FEET WITH NO
SIGNIFICANT WEATHER AND/OR OBSTRUCTIONS TO VISIBILITY.

AZZ001>003-036-251300-
NORTHWEST ARIZONA

CITY           SKY/WX    TMP DP  RH WIND       PRES   REMARKS
BULLHEAD CITY  CLOUDY    63  30  29 S3        29.96S
KINGMAN        CLOUDY    51  20  29 E9        30.03F
6HR MIN TEMP:  47; 6HR MAX TEMP:  54;

$$

AZZ004>008-015-016-018-251300-
NORTH CENTRAL ARIZONA

CITY           SKY/WX    TMP DP  RH WIND       PRES   REMARKS
GRAND CANYON   CLOUDY    30  28  92 CALM      30.13F
6HR MIN TEMP:  29; 6HR MAX TEMP:  32;

WILLIAMS       PTCLDY    36  27  69 CALM      30.12F
PRESCOTT       PTCLDY    41  31  67 S8        30.10F
6HR MIN TEMP:  39; 6HR MAX TEMP:  47;

FLAGSTAFF      MOCLDY    29  27  92 CALM      30.14F
6HR MIN TEMP:  28; 6HR MAX TEMP:  31;

PAYSON         CLEAR     41  32  70 CALM      30.14F
PAGE           CLOUDY    47  32  56 CALM      30.04F
6HR MIN TEMP:  45; 6HR MAX TEMP:  52;

$$

AZZ009>014-017-251300-
NORTHEAST ARIZONA

CITY           SKY/WX    TMP DP  RH WIND       PRES   REMARKS
WINSLOW        MOCLDY    36  29  75 E3        30.10F
6HR MIN TEMP:  35; 6HR MAX TEMP:  47;

SAINT JOHNS    CLOUDY    33  20  58 S5        30.13F WCI  29
6HR MIN TEMP:  32; 6HR MAX TEMP:  42;

WINDOW ROCK    PTCLDY    26  20  77 CALM      30.17F
6HR MIN TEMP:  25; 6HR MAX TEMP:  37;

SHOW LOW       MOCLDY    34  27  75 S5        30.15F WCI  30
$$

AZZ023-251300-
GREATER PHOENIX AREA

CITY           SKY/WX    TMP DP  RH WIND       PRES   REMARKS
PHOENIX        PTCLDY    59  40  49 E5        30.00S
6HR MIN TEMP:  59; 6HR MAX TEMP:  68;

BUCKEYE        PTCLDY    45  41  87 N6        30.00F
LUKE AFB       CLEAR     51  41  69 NW5       29.99F
6HR MIN TEMP:  51; 6HR MAX TEMP:  60;

DEER VALLEY    CLEAR     52  38  58 CALM      30.00F
6HR MIN TEMP:  52; 6HR MAX TEMP:  62;

SCOTTSDALE     CLEAR     53  41  63 CALM      30.02F
6HR MIN TEMP:  53; 6HR MAX TEMP:  64;

MESA-GATEWAY   PTCLDY    52  41  66 E6        30.02F
$$

AZZ027-028-251300-
SOUTHWEST MARICOPA COUNTY AND PINAL COUNTY

CITY           SKY/WX    TMP DP  RH WIND       PRES   REMARKS
CASA GRANDE    NOT AVBL
GILA BEND      FAIR      55  26  32 SE3       29.99S
6HR MIN TEMP:  54; 6HR MAX TEMP:  62;

$$

AZZ503-504-507>509-251300-
SOUTHEAST ARIZONA

CITY           SKY/WX    TMP DP  RH WIND       PRES   REMARKS
TUCSON         CLEAR     47  22  37 SE12      30.07F
6HR MIN TEMP:  47; 6HR MAX TEMP:  58;

DAVIS-MONTHAN  MOCLDY    47  22  37 SE12      30.06F
6HR MIN TEMP:  46; 6HR MAX TEMP:  52;

NOGALES        PTCLDY    39  18  42 SE3       30.09S
6HR MIN TEMP:  38; 6HR MAX TEMP:  48;

SIERRA VISTA   PTCLDY    43  20  39 SE3       30.12S
6HR MIN TEMP:  43; 6HR MAX TEMP:  52;

DOUGLAS        PTCLDY    34  18  52 E6        30.11F WCI  29
6HR MIN TEMP:  34; 6HR MAX TEMP:  44;

SAFFORD        CLEAR     42  32  67 SE3       30.07F
6HR MIN TEMP:  41; 6HR MAX TEMP:  55; 6HR PCP: TRACE;

$$

AZZ020-021-025-026-031-251300-
SOUTHWEST ARIZONA

CITY           SKY/WX    TMP DP  RH WIND       PRES   REMARKS
YUMA           MOCLDY    61  45  55 SE3       29.98F
6HR MIN TEMP:  59; 6HR MAX TEMP:  66;

$$

CAZ031-033-041-043-047-048-061-251300-
SOUTHERN CALIFORNIA

CITY           SKY/WX    TMP DP  RH WIND       PRES   REMARKS
DOWNTOWN L.A.  PTCLDY    57  51  80 CALM      30.10F
6HR MIN TEMP:  57; 6HR MAX TEMP:  60;

L.A. AIRPORT   PTCLDY    56  51  84 NW8       30.11F
6HR MIN TEMP:  56; 6HR MAX TEMP:  59; 6HR PCP: TRACE;

SAN DIEGO      PTCLDY    56  49  77 NW5       30.12F
6HR MIN TEMP:  56; 6HR MAX TEMP:  60;

BURBANK        PTCLDY    54  48  80 N5        30.10F
6HR MIN TEMP:  54; 6HR MAX TEMP:  56; 6HR PCP: TRACE;

ONTARIO        MOCLDY    52  45  77 W7        30.10R
6HR MIN TEMP:  52; 6HR MAX TEMP:  55; 6HR PCP: TRACE;

RIVERSIDE      CLEAR     51  47  86 W6        30.10S
6HR MIN TEMP:  51; 6HR MAX TEMP:  55; 6HR PCP: TRACE;

PALM SPRINGS   MOCLDY    64  45  49 NW6       29.98F
6HR MIN TEMP:  62; 6HR MAX TEMP:  70;

EL CENTRO NAS  CLOUDY    65  32  29 W10       29.99F
6HR MIN TEMP:  64; 6HR MAX TEMP:  69;

IMPERIAL       CLOUDY    63  41  44 W8        29.97F
6HR MIN TEMP:  60; 6HR MAX TEMP:  67;

BLYTHE         CLOUDY    59  38  45 NE6       29.96F
6HR MIN TEMP:  59; 6HR MAX TEMP:  70;

NEEDLES        CLOUDY    67  31  26 N3        29.96F
6HR MIN TEMP:  64; 6HR MAX TEMP:  70;

$$

NVZ020-UTZ003-251300-
SOUTHERN NEVADA-UTAH

CITY           SKY/WX    TMP DP  RH WIND       PRES   REMARKS
LAS VEGAS      CLOUDY    64  34  32 S13G23    29.92F
6HR MIN TEMP:  64; 6HR MAX TEMP:  69;

SALT LAKE CITY CLOUDY    50  38  63 NW15      30.00R
6HR MIN TEMP:  49; 6HR MAX TEMP:  56;

$$

NMZ009-TXZ055-251300-
NEW MEXICO-WEST TEXAS

CITY           SKY/WX    TMP DP  RH WIND       PRES   REMARKS
ALBUQUERQUE    CLOUDY    45  19  35 E5        30.16F
6HR MIN TEMP:  41; 6HR MAX TEMP:  55;

EL PASO        CLEAR     49  20  31 N3        30.11S
6HR MIN TEMP:  49; 6HR MAX TEMP:  67;

$$


........................KEY........................
SKY/WX - SKY CONDITION/WEATHER
TMP    - TEMPERATURE IN FAHRENHEIT
DP     - DEW POINT IN FAHRENHEIT
RH     - RELATIVE HUMIDITY IN PERCENT
WIND   - DIRECTION AND SPEED IN MILES PER HOUR (MPH)
VRB    - VARIABLE WIND DIRECTION
PRES   - MEAN SEA LEVEL PRESSURE IN INCHES OF MERCURY
         F - FALLING PRESSURE   R - RISING PRESSURE
         S - STEADY PRESSURE
VSB    - VISIBILITY IN MILES
HX     - HEAT INDEX IN FAHRENHEIT
WCI    - WIND CHILL INDEX IN FAHRENHEIT
TC     - TEMPERATURE IN CELSIUS WHICH IS ALSO KNOWN AS
         TEMPERATURE IN CENTIGRADE
AFB    - AIR FORCE BASE
         LUKE AFB IS LUKE AIR FORCE BASE
         DAVIS-MONTHAN IS DAVIS-MONTHAN AIR FORCE BASE
NAS    - NAVAL AIR STATION
         EL CENTRO NAS IS EL CENTRO NAVAL AIR STATION
N/A    - NOT AVAILABLE





USA.gov is the U.S. government's official web portal to all federal, state and local government web resources and services.